DW3766 Weather Reports


time (UTC)temp
C
wind
direction
speed
KPH
gust
KPH
rain 1hr
cm
rain 24hr
cm
rain mn
cm
humidity
%
barometer
mb
20260507032629 17 26 6.4 12.9 0.00 0.00 0.00 78 1014.0
20260507032201 17 28 6.4 14.5 0.00 0.00 0.00 78 1013.9
20260507031628 17 22 4.8 14.5 0.00 0.00 0.00 78 1014.1
20260507031159 17 49 4.8 11.3 0.00 0.00 0.00 78 1014.0
20260507030624 17 48 4.8 11.3 0.00 0.00 0.00 78 1014.0
20260507030154 17 360 4.8 12.9 0.00 0.00 0.00 78 1014.1
20260507025658 17 34 6.4 16.1 0.00 0.00 0.00 78 1014.0
20260507025134 17 53 6.4 16.1 0.00 0.00 0.00 78 1014.0
20260507024659 17 12 6.4 11.3 0.00 0.00 0.00 78 1014.0
20260507024131 17 22 4.8 11.3 0.00 0.00 0.00 78 1013.9
20260507023657 17 17 4.8 17.7 0.00 0.00 0.00 78 1013.8
20260507023206 17 23 9.7 17.7 0.00 0.00 0.00 78 1013.7
20260507022630 17 5 6.4 12.9 0.00 0.00 0.00 78 1013.7
20260507022155 17 360 8.0 12.9 0.00 0.00 0.00 78 1014.0
20260507021708 17 5 6.4 11.3 0.00 0.00 0.00 78 1013.8
20260507021132 17 5 4.8 11.3 0.00 0.00 0.00 78 1013.4
20260507020706 17 30 1.6 9.7 0.00 0.00 0.00 78 1013.4
20260507020134 17 53 6.4 12.9 0.00 0.00 0.00 78 1013.2
20260507015708 17 347 4.8 16.1 0.00 0.00 0.00 78 1013.2
20260507015132 17 32 9.7 17.7 0.00 0.00 0.00 78 1013.2
20260507014706 17 19 12.9 17.7 0.00 0.00 0.00 78 1013.2
20260507014210 17 355 3.2 12.9 0.00 0.00 0.00 77 1013.2
20260507013642 17 16 6.4 12.9 0.00 0.00 0.00 77 1012.9
20260507013204 17 24 8.0 20.9 0.00 0.00 0.00 77 1012.9
20260507012638 17 338 12.9 20.9 0.00 0.00 0.00 77 1012.9
20260507012139 17 346 11.3 22.5 0.00 0.00 0.00 77 1012.7
20260507011646 17 24 12.9 22.5 0.00 0.00 0.00 76 1012.7
20260507010647 17 347 8.0 16.1 0.00 0.00 0.00 76 1012.5
20260507010208 17 42 9.7 20.9 0.00 0.00 0.00 76 1012.5
20260507005640 17 13 11.3 20.9 0.00 0.00 0.00 76 1012.5
20260507005144 17 12 4.8 14.5 0.00 0.00 0.00 76 1012.1
20260507004646 17 19 8.0 16.1 0.00 0.00 0.00 76 1012.3
20260507004158 17 48 8.0 19.3 0.00 0.00 0.00 76 1012.5
20260507003724 17 355 9.7 19.3 0.00 0.00 0.00 75 1012.4
20260507003134 18 51 11.3 19.3 0.00 0.00 0.00 75 1012.2
20260507002636 18 38 11.3 17.7 0.00 0.00 0.00 75 1012.0
20260507002148 18 31 11.3 17.7 0.00 0.00 0.00 75 1011.8
20260507001653 18 10 9.7 17.7 0.00 0.00 0.00 75 1012.1
20260507001203 18 29 11.3 20.9 0.00 0.00 0.00 75 1012.2
20260507000627 18 11 12.9 20.9 0.00 0.00 0.00 74 1012.2
20260507000152 18 350 12.9 20.9 0.00 0.00 0.00 73 1012.0
20260506235644 18 329 14.5 19.3 0.00 0.00 0.00 74 1011.9
20260506235203 18 330 12.9 20.9 0.00 0.00 0.00 73 1011.8
20260506234617 18 11 12.9 22.5 0.00 0.00 0.00 73 1011.8
20260506234142 19 40 12.9 24.1 0.00 0.00 0.00 73 1011.4
20260506233653 19 355 11.3 24.1 0.00 0.00 0.00 73 1011.4
20260506233158 19 355 12.9 20.9 0.00 0.00 0.00 72 1011.2
20260506232712 20 20 9.7 19.3 0.00 0.00 0.00 72 1011.2
20260506232137 20 28 9.7 20.9 0.00 0.00 0.00 72 1011.2
20260506231703 20 355 12.9 19.3 0.00 0.00 0.00 71 1011.2
20260506231135 20 355 9.7 14.5 0.00 0.00 0.00 72 1011.3
20260506230659 20 59 9.7 16.1 0.00 0.00 0.00 72 1011.1
20260506230128 20 355 9.7 16.1 0.00 0.00 0.00 72 1011.1
20260506225632 20 18 9.7 22.5 0.00 0.00 0.00 72 1011.1
20260506225135 20 348 12.9 24.1 0.00 0.00 0.00 72 1011.1
20260506224707 20 13 14.5 24.1 0.00 0.00 0.00 72 1011.1
20260506224134 20 34 14.5 24.1 0.00 0.00 0.00 71 1011.2
20260506223708 20 9 14.5 22.5 0.00 0.00 0.00 71 1011.1
20260506223133 20 18 12.9 22.5 0.00 0.00 0.00 69 1011.1
20260506222706 21 23 11.3 24.1 0.00 0.00 0.00 69 1011.1
20260506222132 21 355 14.5 24.1 0.00 0.00 0.00 68 1010.8
20260506221635 21 355 11.3 20.9 0.00 0.00 0.00 69 1010.7
20260506221203 21 355 14.5 25.7 0.00 0.00 0.00 67 1010.7
20260506220629 22 331 17.7 25.7 0.00 0.00 0.00 66 1010.6
20260506220202 22 348 11.3 29.0 0.00 0.00 0.00 66 1010.6
20260506215708 23 32 14.5 29.0 0.00 0.00 0.00 65 1010.6
20260506215145 23 25 11.3 22.5 0.00 0.00 0.00 66 1010.4
20260506214710 23 42 12.9 22.5 0.00 0.00 0.00 66 1010.4
20260506214134 23 17 9.7 20.9 0.00 0.00 0.00 66 1010.6
20260506213648 23 326 11.3 20.9 0.00 0.00 0.00 66 1010.5
20260506213153 23 10 12.9 22.5 0.00 0.00 0.00 66 1010.4
20260506212727 23 34 9.7 20.9 0.00 0.00 0.00 67 1010.4
20260506212130 23 26 12.9 20.9 0.00 0.00 0.00 67 1010.3
20260506211654 23 33 12.9 20.9 0.00 0.00 0.00 66 1010.2
20260506211123 23 61 14.5 19.3 0.00 0.00 0.00 67 1010.3
20260506210650 23 53 8.0 19.3 0.00 0.00 0.00 68 1010.4
20260506210126 23 355 11.3 20.9 0.00 0.00 0.00 68 1010.4
20260506205650 23 17 11.3 20.9 0.00 0.00 0.00 68 1010.3
20260506205123 23 13 14.5 22.5 0.00 0.00 0.00 67 1010.4
20260506204649 24 26 11.3 19.3 0.00 0.00 0.00 68 1010.3
20260506204221 23 346 11.3 19.3 0.00 0.00 0.00 67 1010.2
20260506203704 24 49 14.5 19.3 0.00 0.00 0.00 67 1010.3
20260506203136 24 21 9.7 19.3 0.00 0.00 0.00 69 1010.2
20260506202702 24 32 9.7 25.7 0.00 0.00 0.00 70 1010.2
20260506202132 23 27 16.1 25.7 0.00 0.00 0.00 70 1010.1
20260506201656 23 5 14.5 29.0 0.00 0.00 0.00 70 1010.1
20260506201209 24 28 12.9 29.0 0.00 0.00 0.00 69 1010.3
20260506200638 24 42 16.1 25.7 0.00 0.00 0.00 67 1010.4
20260506200203 25 5 16.1 32.2 0.00 0.00 0.00 64 1010.5
20260506195636 26 37 12.9 32.2 0.00 0.00 0.00 62 1010.5
20260506195202 27 34 8.0 12.9 0.00 0.00 0.00 64 1010.2
20260506194614 27 61 6.4 14.5 0.00 0.00 0.00 64 1010.1
20260506194140 28 13 4.8 12.9 0.00 0.00 0.00 63 1010.0
20260506193613 28 53 6.4 11.3 0.00 0.00 0.00 62 1009.9
20260506193139 28 66 3.2 12.9 0.00 0.00 0.00 62 1009.8
20260506192616 28 111 1.6 12.9 0.00 0.00 0.00 61 1009.8
20260506192141 28 136 1.6 14.5 0.00 0.00 0.00 61 1009.9
20260506191653 28 261 3.2 14.5 0.00 0.00 0.00 60 1010.0
20260506191117 28 184 8.0 11.3 0.00 0.00 0.00 61 1009.9
20260506190145 28 94 3.2 16.1 0.00 0.00 0.00 62 1010.1
20260506185649 28 142 8.0 16.1 0.00 0.00 0.00 61 1010.2
20260506185121 28 278 1.6 8.0 0.00 0.00 0.00 64 1010.3
20260506184646 27 148 1.6 12.9 0.00 0.00 0.00 64 1010.3
20260506184119 27 169 6.4 12.9 0.00 0.00 0.00 64 1010.3
20260506183642 27 132 4.8 11.3 0.00 0.00 0.00 65 1010.4
20260506183120 27 128 3.2 11.3 0.00 0.00 0.00 66 1010.4
20260506182646 27 147 6.4 14.5 0.00 0.00 0.00 66 1010.4
20260506182118 26 94 8.0 16.1 0.00 0.00 0.00 67 1010.5
20260506181644 26 37 4.8 11.3 0.00 0.00 0.00 69 1010.7
20260506181215 26 344 3.2 9.7 0.00 0.00 0.00 69 1010.6
20260506180619 26 140 3.2 12.9 0.00 0.00 0.00 71 1010.7
20260506180144 26 80 4.8 14.5 0.00 0.00 0.00 71 1010.7
20260506175617 25 117 3.2 14.5 0.00 0.00 0.00 72 1010.7
20260506175143 25 41 6.4 12.9 0.00 0.00 0.00 72 1010.8
20260506174620 25 76 3.2 14.5 0.00 0.00 0.00 73 1010.8
20260506174146 25 77 3.2 11.3 0.00 0.00 0.00 75 1010.9
20260506173617 23 76 1.6 14.5 0.00 0.00 0.00 75 1010.9
20260506173142 23 36 8.0 14.5 0.00 0.00 0.00 75 1010.9
20260506172716 23 52 6.4 14.5 0.00 0.00 0.00 76 1010.9
20260506172221 23 25 4.8 14.5 0.00 0.00 0.00 76 1011.0
20260506171733 22 37 4.8 14.5 0.00 0.00 0.00 76 1011.2
20260506171137 22 34 8.0 14.5 0.00 0.00 0.00 76 1011.3
20260506170650 22 51 6.4 17.7 0.00 0.00 0.00 75 1011.3
20260506170116 22 41 11.3 17.7 0.00 0.00 0.00 76 1011.4
20260506165642 23 49 11.3 19.3 0.00 0.00 0.00 75 1011.4
20260506165155 23 46 8.0 19.3 0.00 0.00 0.00 75 1011.4
20260506164620 23 38 8.0 22.5 0.00 0.00 0.00 75 1011.4
20260506164153 25 32 16.1 22.5 0.00 0.00 0.00 74 1011.4
20260506163620 25 98 4.8 11.3 0.00 0.00 0.00 78 1011.1
20260506163151 25 93 6.4 16.1 0.00 0.00 0.00 78 1011.1
20260506162716 25 76 8.0 16.1 0.00 0.00 0.00 78 1011.1
20260506162229 25 80 8.0 14.5 0.00 0.00 0.00 78 1011.1
20260506161634 25 42 9.7 12.9 0.00 0.00 0.00 79 1011.1
20260506161140 25 40 8.0 14.5 0.00 0.00 0.00 79 1011.1
20260506160652 25 78 6.4 14.5 0.00 0.00 0.00 80 1011.0
20260506160117 25 112 6.4 14.5 0.00 0.00 0.00 81 1011.0
20260506155651 25 103 4.8 11.3 0.00 0.00 0.00 81 1011.0
20260506155116 25 53 6.4 11.3 0.00 0.00 0.00 82 1011.0
20260506154650 24 95 6.4 11.3 0.00 0.00 0.00 83 1011.0
20260506154120 24 86 3.2 8.0 0.00 0.00 0.00 83 1011.0
20260506153645 24 51 3.2 8.0 0.00 0.00 0.00 84 1010.9
20260506153118 24 104 3.2 6.4 0.00 0.00 0.00 85 1010.8
20260506152643 24 88 3.2 6.4 0.00 0.00 0.00 85 1010.8
20260506152115 24 130 0.0 8.0 0.00 0.00 0.00 86 1010.5
20260506151642 23 142 3.2 8.0 0.00 0.00 0.00 86 1010.4
20260506151154 23 123 0.0 6.4 0.00 0.00 0.00 86 1010.4
20260506150620 23 123 1.6 6.4 0.00 0.00 0.00 86 1010.2
20260506150154 23 154 3.2 6.4 0.00 0.00 0.00 87 1010.2
20260506145618 23 138 0.0 6.4 0.00 0.00 0.00 87 1010.2
20260506145144 23 165 1.6 6.4 0.00 0.00 0.00 87 1010.2
20260506144654 23 135 3.2 6.4 0.00 0.00 0.00 87 1010.1
20260506144218 23 146 3.2 6.4 0.00 0.00 0.00 87 1010.0
20260506143708 23 148 1.6 3.2 0.00 0.00 0.00 87 1010.1
20260506143133 23 116 1.6 3.2 0.00 0.00 0.00 87 1010.2
20260506142707 23 129 1.6 3.2 0.00 0.00 0.00 87 1010.3
20260506142232 23 128 0.0 1.6 0.00 0.00 0.00 87 1010.3
20260506141643 23 129 0.0 6.4 0.00 0.00 0.00 87 1010.2
20260506141206 23 128 1.6 6.4 0.00 0.00 0.00 87 1010.3
20260506140639 23 88 3.2 8.0 0.00 0.00 0.00 87 1010.1
20260506140146 23 117 3.2 8.0 0.00 0.00 0.00 87 1009.8
20260506135615 23 113 1.6 8.0 0.00 0.00 0.00 87 1009.7
20260506135149 23 112 3.2 9.7 0.00 0.00 0.00 87 1009.4
20260506134615 23 115 4.8 9.7 0.00 0.00 0.00 87 1009.2
20260506134142 23 121 3.2 9.7 0.00 0.00 0.00 87 1009.1
20260506133634 23 118 4.8 9.7 0.00 0.00 0.00 87 1009.0
20260506133157 23 148 3.2 11.3 0.00 0.00 0.00 87 1008.9
20260506132710 23 146 4.8 11.3 0.00 0.00 0.00 87 1008.8
20260506132132 23 128 3.2 8.0 0.00 0.00 0.00 87 1008.8
20260506131137 23 128 6.4 11.3 0.00 0.00 0.00 87 1008.8
20260506130704 23 115 4.8 9.7 0.00 0.00 0.00 87 1008.8
20260506130139 23 90 3.2 9.7 0.00 0.00 0.00 87 1008.7
20260506125708 23 93 3.2 9.7 0.00 0.00 0.00 87 1008.7
20260506125138 23 131 6.4 9.7 0.00 0.00 0.00 87 1008.5
20260506124703 23 146 4.8 11.3 0.00 0.00 0.00 87 1008.5
20260506124134 23 111 6.4 12.9 0.00 0.00 0.00 87 1008.5
20260506123701 23 109 4.8 11.3 0.00 0.00 0.00 87 1008.5
20260506123124 23 122 4.8 8.0 0.00 0.00 0.00 87 1008.5
20260506122656 23 134 4.8 9.7 0.00 0.00 0.00 87 1008.5
20260506122158 23 135 6.4 9.7 0.00 0.00 0.00 87 1008.5
20260506121630 23 122 6.4 8.0 0.00 0.00 0.00 87 1008.4
20260506121154 23 142 3.2 6.4 0.00 0.00 0.00 87 1008.5
20260506120631 23 157 3.2 4.8 0.00 0.00 0.00 87 1008.5
20260506120157 23 144 3.2 8.0 0.00 0.00 0.00 87 1008.5
20260506115711 23 145 3.2 8.0 0.00 0.00 0.00 87 1008.5
20260506115137 23 167 3.2 4.8 0.00 0.00 0.00 87 1008.5
20260506114711 23 141 1.6 6.4 0.00 0.00 0.00 87 1008.4
20260506114135 23 140 1.6 6.4 0.00 0.00 0.00 86 1008.5
20260506113700 23 204 0.0 0.0 0.00 0.00 0.00 86 1008.5
20260506113130 23 205 0.0 0.0 0.00 0.00 0.00 86 1008.5
20260506112655 23 204 0.0 0.0 0.00 0.00 0.00 86 1008.5
20260506112133 23 204 0.0 0.0 0.00 0.00 0.00 86 1008.5
20260506111650 23 205 0.0 0.0 0.00 0.00 0.00 86 1008.5
20260506111140 23 205 0.0 0.0 0.00 0.00 0.00 86 1008.5
20260506110706 23 204 0.0 0.0 0.00 0.00 0.00 86 1008.5
20260506110139 23 205 0.0 3.2 0.00 0.00 0.00 86 1008.5
20260506105645 23 175 0.0 3.2 0.00 0.00 0.00 86 1008.5
20260506105205 23 175 1.6 3.2 0.00 0.00 0.00 86 1008.5
20260506104617 23 195 1.6 8.0 0.00 0.00 0.00 86 1008.3
20260506104122 23 160 1.6 8.0 0.00 0.00 0.00 86 1008.3
20260506103652 23 151 3.2 8.0 0.00 0.00 0.00 86 1008.2
20260506103156 23 196 4.8 12.9 0.00 0.00 0.00 86 1008.2
20260506102621 23 182 4.8 11.3 0.00 0.00 0.00 86 1008.2
20260506102155 23 182 4.8 11.3 0.00 0.00 0.00 86 1008.3
20260506101624 23 188 6.4 14.5 0.00 0.00 0.00 86 1008.3
20260506101159 23 182 8.0 16.1 0.00 0.00 0.00 86 1008.3
20260506100703 23 173 9.7 16.1 0.00 0.00 0.00 86 1008.3
20260506100124 23 204 8.0 16.1 0.00 0.00 0.00 85 1008.2
20260506095650 23 196 9.7 16.1 0.00 0.00 0.00 85 1008.2
20260506095140 23 216 4.8 17.7 0.00 0.00 0.00 85 1008.2
20260506094706 23 223 8.0 17.7 0.00 0.00 0.00 85 1008.1
20260506094131 23 186 9.7 16.1 0.00 0.00 0.00 85 1008.2
20260506093704 23 165 8.0 16.1 0.00 0.00 0.00 85 1008.1
20260506093128 23 194 6.4 16.1 0.00 0.00 0.00 85 1008.1
20260506092701 23 212 6.4 14.5 0.00 0.00 0.00 85 1008.2
20260506092128 23 198 6.4 12.9 0.00 0.00 0.00 85 1008.1
20260506091701 23 187 4.8 16.1 0.00 0.00 0.00 85 1008.0
20260506091229 23 186 9.7 16.1 0.00 0.00 0.00 85 1008.0
20260506090641 23 165 9.7 17.7 0.00 0.00 0.00 85 1008.0
20260506090126 23 196 11.3 17.7 0.00 0.00 0.00 85 1008.0
20260506085651 23 146 8.0 14.5 0.00 0.00 0.00 85 1008.0
20260506085225 23 161 6.4 12.9 0.00 0.00 0.00 85 1007.9
20260506084629 23 175 4.8 12.9 0.00 0.00 0.00 85 1008.0
20260506084155 23 157 8.0 17.7 0.00 0.00 0.00 85 1007.9
20260506083643 23 175 11.3 24.1 0.00 0.00 0.00 85 1007.9
20260506083205 23 158 12.9 24.1 0.00 0.00 0.00 85 1007.9
20260506082631 23 168 9.7 22.5 0.00 0.00 0.00 85 1007.8
20260506082204 23 205 11.3 22.5 0.00 0.00 0.00 85 1007.8
20260506081630 23 177 9.7 20.9 0.00 0.00 0.00 85 1007.9
20260506081202 23 137 6.4 20.9 0.00 0.00 0.00 85 1008.0
20260506080629 23 161 12.9 22.5 0.00 0.00 0.00 85 1008.0
20260506080201 23 174 12.9 22.5 0.00 0.00 0.00 85 1008.0
20260506073145 23 160 9.7 19.3 0.00 0.00 0.00 85 1008.2
20260506072614 23 142 11.3 17.7 0.00 0.00 0.00 85 1008.2
20260506072145 23 167 8.0 17.7 0.00 0.00 0.00 85 1008.3
20260506071712 23 198 6.4 17.7 0.00 0.00 0.00 85 1008.4
20260506071116 23 171 9.7 14.5 0.00 0.00 0.00 85 1008.4
20260506070651 23 169 8.0 17.7 0.00 0.00 0.00 85 1008.5
20260506070117 23 149 8.0 17.7 0.00 0.00 0.00 85 1008.6
20260506062131 23 157 11.3 24.1 0.00 0.00 0.00 84 1008.6
20260506061629 23 147 9.7 14.5 0.00 0.00 0.00 84 1008.7
20260506061132 24 167 8.0 16.1 0.00 0.00 0.00 84 1008.6
20260506060638 24 169 9.7 20.9 0.00 0.00 0.00 84 1008.6
20260506060132 24 155 9.7 20.9 0.00 0.00 0.00 84 1008.7
20260506051128 24 167 6.4 17.7 0.00 0.00 0.00 83 1008.5
20260506050649 24 151 9.7 17.7 0.00 0.00 0.00 83 1008.5
20260506045117 25 148 9.7 16.1 0.00 0.00 0.00 83 1008.5
20260506044651 25 131 8.0 16.1 0.00 0.00 0.00 83 1008.5
20260506044134 25 136 11.3 17.7 0.00 0.00 0.00 83 1008.4
20260506043645 25 140 11.3 17.7 0.00 0.00 0.00 83 1008.4
20260506043113 25 186 8.0 17.7 0.00 0.00 0.00 83 1008.5
20260506042644 25 164 8.0 19.3 0.00 0.00 0.00 82 1008.5
20260506042210 25 134 9.7 19.3 0.00 0.00 0.00 82 1008.3
20260506041642 25 140 9.7 16.1 0.00 0.00 0.00 82 1008.3
20260506041208 25 170 9.7 19.3 0.00 0.00 0.00 82 1008.3
20260506040638 25 139 11.3 19.3 0.00 0.00 0.00 82 1008.3
20260506040203 25 146 11.3 17.7 0.00 0.00 0.00 82 1008.1
20260506035628 25 151 6.4 14.5 0.00 0.00 0.00 82 1008.1
20260506035159 25 128 4.8 9.7 0.00 0.00 0.00 81 1008.1
20260506034628 25 125 4.8 9.7 0.00 0.00 0.00 81 1008.0
20260506034158 25 126 4.8 9.7 0.00 0.00 0.00 81 1007.9
20260506033624 25 159 4.8 9.7 0.00 0.00 0.00 81 1007.8
20260506033158 25 145 4.8 9.7 0.00 0.00 0.00 81 1007.9